Weather Service Report


154 
ASUS42 KTBW 172116
RWRFL 
FLORIDA REGIONAL WEATHER ROUNDUP
NATIONAL WEATHER SERVICE TAMPA BAY RUSKIN FL
400 PM EST TUE JAN 17 2017

NOTE: "FAIR" INDICATES FEW OR NO CLOUDS BELOW 12,000 FEET WITH NO
SIGNIFICANT WEATHER AND/OR OBSTRUCTIONS TO VISIBILITY.

FLZ001>010-012>015-112-114-115-172200-
PANHANDLE FLORIDA
  
CITY           SKY/WX    TMP DP  RH WIND       PRES   REMARKS
PENSACOLA      MOSUNNY   75  66  73 S12       30.16R                  
PENSACOLA NAS  CLOUDY    75  67  76 S9        30.16R                  
MILTON NAS     PTSUNNY   75  64  68 SW13      30.16                   
CRESTVIEW      MOSUNNY   78  61  55 S10       30.17R                  
DUKE FIELD     PTSUNNY   76  64  67 S12       30.15R                  
VALPARAISO     PTSUNNY   74  66  76 SE8       30.16R                  
MARY ESTHER    MOSUNNY   73  64  72 SE7       30.16R                  
TRI COUNTY     CLOUDY    74  65  73 W3        30.17R                  
PANAMA CITY    FAIR      74  67  78 SE12      30.16R                  
TYNDALL AFB    PTSUNNY   70  66  88 S15       30.18R                  
APALACHICOLA   MOSUNNY   72  68  87 SE7       30.18S                  

STATION/POSITION SKY/WX   TEMP    WIND        PRES    WAVE   SWELL
                          AIR SEA DIR/SP/G            HT/PER HT/PER
                          (F)     (DEG/KT/KT) (MB)    (FT/S) (FT/S)
30.1N   87.6W              68 68   50/  4/  4 1021.2R   3/ 6   3/ 6
28.8N   86.0W              76 75              1021.2F   4/ 6   3/ 6
PANAMA CITY BEAC           66 65  120/  9/  9 1021.7R
TOWER C                    68     150/ 11/ 11 1022.3R
28.5N   84.5W              72 72  140/ 10/ 12 1022.0R   3/ 5   2/ 5

$$
FLZ011-016>038-118-127-128-134-139-239-172200-
NORTH FLORIDA
  
CITY           SKY/WX    TMP DP  RH WIND       PRES   REMARKS
MARIANNA       PTSUNNY   77  62  59 SW8       30.16R                  
TALLAHASSEE    PTSUNNY   75  63  66 SE7       30.18S                  
PERRY          CLOUDY    74  61  63 SW6       30.20F                  
CROSS CITY     CLOUDY    73  59  60 SW7       30.20S                  
LAKE CITY      FAIR      77  55  47 CALM      30.19F                  
GAINESVILLE    PTSUNNY   78  54  43 VRB3      30.19F                  
WILLISTON      SUNNY     79  61  53 W8        30.19S                  
PALATKA        FAIR      79  57  47 SW5       30.20S                  
MAYPORT NAS    PTSUNNY   70  59  68 SE8       30.20S                  
JACKSONVILLE   PTSUNNY   77  55  46 SW7       30.18F                  
JAX NAS        PTSUNNY   79  54  41 W8        30.20S                  
FERNANDINA BEA FAIR      70  63  78 E5        30.19S                  
ST AUGUSTINE   CLOUDY    73  64  73 SE8       30.21S                  
PALM COAST     SUNNY     75  64  69 E7        30.20S                  

STATION/POSITION SKY/WX   TEMP    WIND        PRES    WAVE   SWELL
                          AIR SEA DIR/SP/G            HT/PER HT/PER
                          (F)     (DEG/KT/KT) (MB)    (FT/S) (FT/S)
SHELL POINT      NOT AVBL
KEATON BEACH               69     170/  7/  8 1022.3F
CEDAR KEY                  70     250/  1/  2 1023.4F
FERNANDINA                 71 64  110/  6/  8 1023.1F
30.7N   81.3W                 62                N/A     2/11
MAYPORT          NOT AVBL
31.4N   80.9W              61 61  120/  4/  4 1022.5S   2/10   2/10
ST AUGUSTINE               67 66  130/  6/  7 1023.5F

$$
FLZ040-043>046-052-053-057-058-063-144-172200-
INTERIOR CENTRAL FLORIDA
  
CITY           SKY/WX    TMP DP  RH WIND       PRES   REMARKS
OCALA          MOSUNNY   79  55  44 SW6       30.20S                  
THE VILLAGES     N/A     79  66  65 MISG      30.10S                  
LEESBURG       MOSUNNY   79  58  48 SE3       30.20S                  
SANFORD        MOSUNNY   79  57  46 S5        30.20R                  
ORLANDO EXEC   MOSUNNY   79  59  50 SW5       30.20S                  
ORLANDO INTL   PTSUNNY   79  59  50 S6        30.20S                  
KISSIMMEE      PTSUNNY   78  61  55 SE5       30.21S                  
WINTER HAVEN   CLOUDY    78  56  46 S3        30.20F                  
LAKELAND       MOSUNNY   79  61  53 S3        30.20S                  
BARTOW         PTSUNNY   77  57  50 E5        30.20S                  
OKEECHOBEE     PTSUNNY   77  61  57 S5        30.19S                  

$$
FLZ041-047-054-059-064-141-147-172200-
EAST CENTRAL FLORIDA
  
CITY           SKY/WX    TMP DP  RH WIND       PRES   REMARKS
ORMOND BEACH   MOSUNNY   75  63  64 E14       30.21R                  
DAYTONA BEACH  PTSUNNY   75  62  64 E5        30.21R                  
DELAND         SUNNY     79  57  47 S6        30.19S                  
NEW SMYRNA BEA MOSUNNY   77  63  61 E12       30.21S                  
JFK SPACE CTR  MOSUNNY   76  61  58 SE7       30.20S                  
TITUSVILLE     MOSUNNY   75  59  57 SE12      30.21                   
CAPE CANAVERAL PTSUNNY   76  64  65 SE8       30.20R                  
PATRICK AFB    MOSUNNY   76  67  74 SE8       30.20R                  
MELBOURNE      MOSUNNY   76  64  66 SE10      30.20R                  
VERO BEACH     MOSUNNY   77  65  66 SE14      30.20S                  
FT PIERCE      CLOUDY    77  64  64 SE14      30.19S                  
STUART         MOSUNNY   81  59  47 SE12      30.21                   

STATION/POSITION SKY/WX   TEMP    WIND        PRES    WAVE   SWELL
                          AIR SEA DIR/SP/G            HT/PER HT/PER
                          (F)     (DEG/KT/KT) (MB)    (FT/S) (FT/S)
TRIDENT PIER               76 68  120/  5/  8 1023.0R
28.4N   80.5W                 71                N/A     3/ 5
27.5N   80.2W                 76                N/A     3/ 5   2/11

$$
FLZ050-056-061-142-242-148-248-149-249-151-251-155-255-
160-260-172200-
WEST CENTRAL FLORIDA
  
CITY           SKY/WX    TMP DP  RH WIND       PRES   REMARKS
CRYSTAL RIVER  FAIR      73  63  68 W6        30.21R                  
INVERNESS      FAIR      79  61  53 CALM      30.20R                  
BROOKSVILLE    PTSUNNY   75  61  61 W12       30.20S                  
CLEARWATER AIR CLOUDY    73  63  68 NW7       30.19S                  
ST PETE CLEARW PTSUNNY   79  60  52 CALM      30.19S                  
TAMPA INTL     CLOUDY    80  59  48 SW5       30.19S                  
TAMPA EXEC     PTSUNNY   82  59  44 SE3       30.19S                  
PLANT CITY     PTSUNNY   81  63  54 SE5       30.21S                  
MACDILL AFB    PTSUNNY   81  64  55 SW3       30.18F                  
PETER O KNIGHT CLOUDY    81  63  54 CALM      30.19S                  
ST PETERSBURG  CLOUDY    76  61  59 SW8       30.17S                  
SARASOTA       SUNNY     75  61  61 SW10      30.17R                  
VENICE         FAIR      77  63  61 SW8       30.19R                  

STATION/POSITION SKY/WX   TEMP    WIND        PRES    WAVE   SWELL
                          AIR SEA DIR/SP/G            HT/PER HT/PER
                          (F)     (DEG/KT/KT) (MB)    (FT/S) (FT/S)
27.3N   84.2W                 77                N/A     3/ 6
CLEARWATER BEACH              65  240/  5/  7 1022.6R
MIDDLE TAMPA BAY           70     300/  7/  8 1022.4F
VENICE                     74 67  210/  9/  9 1021.5F

$$
FLZ066-069-070-075>078-162-262-165-265-172200-
SOUTHWEST FLORIDA AND KEYS
  
CITY           SKY/WX    TMP DP  RH WIND       PRES   REMARKS
PUNTA GORDA    MOSUNNY   82  60  47 NW9       30.18S                  
FT MYERS       MOSUNNY   81  61  50 W8        30.15S                  
SOUTHWEST INTL MOSUNNY   82  58  43 SE8       30.16S                  
NAPLES         MOSUNNY   81  61  50 SW13      30.15F                  
MARCO ISLAND   SUNNY     63  61  94 S6        30.17R                  
MARATHON       SUNNY     81  66  60 E8        30.15F                  
KEY WEST NAS   MOSUNNY   79  66  64 SE14      30.15                   
KEY WEST INTL  MOSUNNY   79  68  69 E14       30.15S                  

STATION/POSITION SKY/WX   TEMP    WIND        PRES    WAVE   SWELL
                          AIR SEA DIR/SP/G            HT/PER HT/PER
                          (F)     (DEG/KT/KT) (MB)    (FT/S) (FT/S)
NAPLES                        68              1021.1F
26.0N   85.6W              75 75  120/ 12/ 14 1020.7R   4/ 6   3/ 6
DRY TORTUGAS               77     120/ 18/ 19 1020.4S
SAND KEY                   76     130/ 18/ 19 1021.1F
LONG KEY                   75 72   90/ 11/ 13 1021.5F
MOLASSES REEF              76 77  130/ 11/ 12 1022.0F

$$
FLZ067-068-071>074-168-172>174-172200-
SOUTHEAST FLORIDA 
  
CITY           SKY/WX    TMP DP  RH WIND       PRES   REMARKS
W PALM BEACH   PTSUNNY   76  58  53 SE9       30.21R                  
FT LAUDER-EXEC MOSUNNY   77  61  57 SE10      30.19R                  
FT LAUDERDALE  PTSUNNY   76  62  62 SE12      30.18R                  
POMPANO BEACH  MOSUNNY   77  62  59 S9        30.19S                  
PEMBROKE PINES CLOUDY    77  62  59 SE8       30.20S                  
OPA LOCKA      MOSUNNY   80  61  52 SE14      30.19S                  
MIAMI          PTSUNNY   80  62  54 E14       30.19S                  
WEST KENDALL   PTSUNNY   78  61  55 E14       30.18S                  
HOMESTEAD      MOSUNNY   78  65  63 E10       30.18R                  

STATION/POSITION SKY/WX   TEMP    WIND        PRES    WAVE   SWELL
                          AIR SEA DIR/SP/G            HT/PER HT/PER
                          (F)     (DEG/KT/KT) (MB)    (FT/S) (FT/S)
PORT EVERGLADES            75     140/  7/ 10 1022.4R
VIRGINIA KEY               75 78  130/  5/  8 1022.8R
LAKE WORTH                 75 76  160/  8/  9 1022.5R
FOWEY ROCKS                75 76  120/ 12/ 13 1022.6F

$$

  

Return to Home page


Western Regional Climate Center, wrcc@dri.edu